This is the latest recevied weather packets stored in our database for station/object NQ9F. If no packets are shown the sender has not sent any weather packets the latest 10 day(s).
| Time | Temp. | Humidity | Pressure | Rain* | Wind** | Luminosity | Snow |
|---|---|---|---|---|---|---|---|
| 1777926900 | 27.22° C | 57% | 1007.6 hPa | 0 mm | - | 933 W/m² | - |
| 1777926596 | 26.67° C | 57% | 1007.6 hPa | 0 mm | - | 935 W/m² | - |
| 1777926293 | 27.22° C | 57% | 1007.8 hPa | 0 mm | - | 902 W/m² | - |
| 1777925990 | 27.22° C | 57% | 1007.9 hPa | 0 mm | - | 969 W/m² | - |
| 1777925687 | 27.22° C | 58% | 1008 hPa | 0 mm | - | 951 W/m² | - |
| 1777925384 | 26.67° C | 58% | 1008.1 hPa | 0 mm | - | 929 W/m² | - |
| 1777925081 | 26.67° C | 59% | 1008.3 hPa | 0 mm | - | 855 W/m² | - |
| 1777924778 | 26.67° C | 58% | 1008.6 hPa | 0 mm | - | 932 W/m² | - |
| 1777924473 | 26.11° C | 59% | 1008.2 hPa | 0 mm | - | 775 W/m² | - |
| 1777924170 | 26.67° C | 59% | 1008.5 hPa | 0 mm | - | 790 W/m² | - |
| 1777923866 | 26.11° C | 59% | 1008.6 hPa | 0 mm | - | 587 W/m² | - |
| 1777923562 | 26.11° C | 60% | 1008.8 hPa | 0 mm | - | 844 W/m² | - |
| 1777923260 | 26.67° C | 59% | 1009 hPa | 0 mm | - | 887 W/m² | - |
| 1777922958 | 26.67° C | 60% | 1009.2 hPa | 0 mm | - | 896 W/m² | - |
| 1777922655 | 26.11° C | 60% | 1009.1 hPa | 0 mm | - | 984 W/m² | - |
| 1777922354 | 26.11° C | 62% | 1009.2 hPa | 0 mm | - | 937 W/m² | - |
| 1777922052 | 26.11° C | 61% | 1009 hPa | 0 mm | - | 869 W/m² | - |
| 1777921746 | 26.11° C | 60% | 1009.2 hPa | 0 mm | - | 894 W/m² | - |
| 1777921443 | 25.56° C | 61% | 1009.2 hPa | 0 mm | - | 952 W/m² | - |
| 1777921140 | 25° C | 61% | 1009.4 hPa | 0 mm | - | 1021 W/m² | - |
| 1777920837 | 25.56° C | 62% | 1009.7 hPa | 0 mm | - | 1032 W/m² | - |
| 1777920533 | 25.56° C | 62% | 1009.7 hPa | 0 mm | - | 883 W/m² | - |
| 1777920229 | 25° C | 62% | 1009.8 hPa | 0 mm | - | 191 W/m² | - |
| 1777919925 | 25.56° C | 62% | 1009.8 hPa | 0 mm | - | 563 W/m² | - |
| 1777919623 | 25.56° C | 62% | 1009.8 hPa | 0 mm | - | 187 W/m² | - |
* Rain latest hour (hover to see other rain measurements)
** Current wind speed in m/s (hover to see current wind gust speed)